Des Moines, IA

2:27 PM CST on December 10, 2016 (GMT -0600)
Des Moines International

Weather History for KDSM - November, 2012

Change the Weather History Date:

Thursday, November 22, 2012

  Actual Average Record
Temperature  
Mean Temperature 53 °F 36 °F  
Max Temperature 68 °F 44 °F 69 °F (1966)
Min Temperature 38 °F 27 °F 0 °F (1937)
Degree Days  
Heating Degree Days 12 29  
Month to date heating degree days 386 520  
Since 1 July heating degree days 840 1004  
Cooling Degree Days 0 0  
Month to date cooling degree days 3 0  
Year to date cooling degree days 1613 1066  
Growing Degree Days 3 (Base 50)    
Moisture  
Dew Point 38 °F    
Average Humidity 55    
Maximum Humidity 70    
Minimum Humidity 39    
Precipitation  
Precipitation 0.00 in 0.06 in 1.12 in (1884)
Month to date precipitation 1.33 1.68  
Year to date precipitation 24.36 34.09  
Snow  
Snow 0.00 in 0.10 in 3.60 in (1991)
Month to date snowfall T 1.2  
Since 1 July snowfall T 1.6  
Since 1 September snowfall T 1.6  
Snow Depth 0.00 in    
Sea Level Pressure  
Sea Level Pressure 29.89 in    
Wind  
Wind Speed 17 mph (WSW)    
Max Wind Speed 32 mph    
Max Gust Speed 41 mph    
Visibility 10 miles    
Events      
T = Trace of Precipitation, MM = Missing Value Source: NWS Daily Summary

Daily Weather History Graph

Daily Weather History Graph

Search for Another Location

Airport or City:

Trip Planner

Search our weather history database for the weather conditions in past years. The results will help you decide how hot, cold, wet, or windy it might be!

Date:

Astronomy

Nov. 22, 2012 Rise Set
Actual Time 7:12 AM CST 4:49 PM CST
Civil Twilight 6:42 AM CST 5:19 PM CST
Nautical Twilight 6:08 AM CST 5:53 PM CST
Astronomical Twilight 5:34 AM CST 6:26 PM CST
Moon 1:38 PM CST (11/22) 1:29 AM CST (11/22)
Length of Visible Light 10h 37m
Length of Day
9h 36m
Waxing Gibbous, 71% of the Moon is Illuminated
Nov 22
Waxing Gibbous
Nov 28
Full
Dec 6
Last Quarter
Dec 13
New
Dec 19
First Quarter

Hourly Weather History & Observations

Time (CST) Temp. Windchill Dew Point Humidity Pressure Visibility Wind Dir Wind Speed Gust Speed Precip Events Conditions
12:54 AM 55.9 °F - 37.9 °F 51% 29.87 in 10.0 mi South 13.8 mph - N/A   Clear
1:54 AM 57.9 °F - 37.9 °F 47% 29.83 in 10.0 mi South 16.1 mph 25.3 mph N/A   Clear
2:54 AM 55.9 °F - 39.0 °F 53% 29.82 in 10.0 mi South 13.8 mph - N/A   Clear
3:54 AM 55.9 °F - 39.0 °F 53% 29.80 in 10.0 mi South 15.0 mph 23.0 mph N/A   Clear
4:54 AM 55.9 °F - 39.0 °F 53% 29.79 in 10.0 mi South 15.0 mph 23.0 mph N/A   Clear
5:54 AM 55.0 °F - 39.0 °F 55% 29.78 in 10.0 mi South 15.0 mph - N/A   Clear
6:54 AM 54.0 °F - 39.0 °F 57% 29.77 in 10.0 mi South 12.7 mph - N/A   Mostly Cloudy
7:54 AM 55.0 °F - 39.9 °F 57% 29.78 in 10.0 mi South 13.8 mph - N/A   Mostly Cloudy
8:54 AM 55.9 °F - 42.1 °F 60% 29.77 in 10.0 mi South 16.1 mph - N/A   Mostly Cloudy
9:54 AM 60.1 °F - 44.1 °F 55% 29.76 in 10.0 mi SSW 15.0 mph 23.0 mph N/A   Overcast
10:54 AM 63.0 °F - 46.9 °F 56% 29.75 in 10.0 mi SSW 15.0 mph - N/A   Mostly Cloudy
11:54 AM 64.9 °F - 48.0 °F 54% 29.73 in 10.0 mi SW 17.3 mph 27.6 mph N/A   Mostly Cloudy
12:54 PM 66.9 °F - 48.0 °F 51% 29.73 in 10.0 mi WSW 21.9 mph 28.8 mph N/A   Mostly Cloudy
1:54 PM 66.9 °F - 42.1 °F 40% 29.76 in 10.0 mi WNW 19.6 mph - N/A   Scattered Clouds
2:54 PM 62.1 °F - 37.0 °F 39% 29.81 in 10.0 mi WNW 27.6 mph 34.5 mph N/A   Scattered Clouds
3:54 PM 59.0 °F - 37.9 °F 46% 29.87 in 10.0 mi NW 27.6 mph 39.1 mph N/A   Scattered Clouds
4:54 PM 52.0 °F - 36.0 °F 54% 29.96 in 10.0 mi NW 19.6 mph 33.4 mph N/A   Overcast
5:54 PM 48.9 °F - 35.1 °F 59% 30.02 in 10.0 mi NW 17.3 mph 26.5 mph N/A   Partly Cloudy
6:54 PM 45.0 °F 36.0 °F 33.1 °F 63% 30.07 in 10.0 mi NW 25.3 mph 33.4 mph N/A   Partly Cloudy
7:54 PM 43.0 °F 36.0 °F 33.1 °F 68% 30.09 in 10.0 mi NW 13.8 mph 24.2 mph N/A   Clear
8:54 PM 43.0 °F 35.4 °F 33.1 °F 68% 30.12 in 10.0 mi WNW 16.1 mph - N/A   Partly Cloudy
9:54 PM 42.1 °F 34.2 °F 33.1 °F 70% 30.14 in 10.0 mi WNW 16.1 mph - N/A   Mostly Cloudy
10:54 PM 41.0 °F 32.8 °F 27.0 °F 57% 30.14 in 10.0 mi NW 16.1 mph 32.2 mph N/A   Clear
11:54 PM 37.9 °F 30.0 °F 28.0 °F 68% 30.16 in 10.0 mi WNW 12.7 mph - N/A   Clear